#timestamp,LO_Frequency,Hit,StdDev 
1657663215.2,286047005.7,N
1657663235.9,286047003.4,N
1657663255.7,286047004.1,N
1657663275.6,286047003.5,N
1657663295.4,286047005.5,N
1657663315.2,286047005.1,N
1657663335.1,286047005.4,N
1657663336.0,286047005.4,N
1657663355.8,286047005.4,N
1657663375.7,286047005.1,N
1657663395.5,286047006.8,N
1657663415.3,286047010.5,Y
1657663435.2,286047010.4,P
1657663455.0,286047010.9,N
1657663455.9,286047010.9,N
1657663475.8,286047012.7,Y
1657663495.6,286047006.1,P
1657663515.4,286047006.8,P
1657663535.3,286047007.1,P
1657663555.1,286047003.0,Y
1657663575.9,286046998.4,P
1657663595.7,286046996.8,N
1657663615.5,286046999.5,N
1657663635.4,286046998.7,N
1657663655.2,286047000.2,N
1657663675.0,286047003.1,N
1657663675.9,286047003.1,N
1657663695.8,286047006.3,N
1657663715.6,286047007.9,N
1657663735.5,286047012.3,Y
1657663755.3,286047012.1,P
1657663775.1,286047009.7,N
1657663795.9,286047011.0,N
1657663815.7,286047013.9,Y
1657663835.6,286047003.7,P
1657663855.4,286047003.7,N
1657663875.2,286047003.9,N
1657663895.1,286047003.8,N
1657663896.0,286047003.8,N
1657663915.8,286047003.0,N
1657663935.6,286047004.3,N
1657663955.5,286047002.8,N
1657663975.3,286047000.4,N
1657663995.2,286047000.5,N
1657664015.9,286046999.3,N
1657664035.7,286046998.5,N
1657664055.6,286047001.2,N
1657664075.4,286046998.3,N
1657664095.2,286046999.5,N
1657664115.1,286046997.5,N
1657664116.0,286046997.5,N
1657664135.8,286046996.7,N
1657664155.7,286046998.9,N
1657664175.5,286047002.0,N
1657664195.3,286047004.4,N
1657664215.2,286047005.3,N
1657664235.9,286047004.7,N
1657664255.7,286047007.6,N
1657664275.6,286047008.8,N
1657664295.4,286047006.1,N
1657664315.3,286047007.4,N
1657664335.1,286047006.5,N
1657664336.0,286047006.5,N
1657664355.8,286047007.6,N
1657664375.7,286047008.1,N
1657664395.5,286047010.3,N
1657664415.3,286047012.0,Y
1657664435.2,286047010.4,P
1657664455.0,286047009.9,N
1657664455.9,286047009.9,N
1657664475.8,286047011.5,Y
1657664495.6,286047005.2,P
1657664515.4,286047004.9,P
1657664535.3,286047007.4,P
1657664555.1,286047002.9,N
1657664575.8,286047003.1,N
1657664595.7,286047005.8,N
1657664615.5,286047005.0,N
1657664635.4,286047007.2,Y
1657664655.2,286047002.4,P
1657664675.0,286047002.0,N
1657664675.9,286047002.0,N
1657664695.8,286047001.9,N
1657664715.6,286047003.0,N
1657664735.5,286047004.1,Y
1657664755.3,286047000.7,P
1657664775.1,286046998.1,N
1657664795.9,286046998.8,N
1657664815.7,286047000.8,N
1657664835.6,286047002.4,N
1657664855.4,286047001.1,N
1657664875.2,286047001.1,N
1657664895.1,286046998.5,N
1657664896.0,286046998.5,N
1657664915.8,286047002.6,N
1657664935.6,286046999.9,N
1657664955.5,286047002.6,N
1657664975.3,286047001.5,N
1657664995.2,286047001.3,N
1657665015.9,286047004.3,N
1657665035.7,286047003.2,N
1657665055.6,286047005.5,Y
1657665075.4,286047003.0,P
1657665095.3,286047005.0,P
1657665115.1,286047002.9,N
1657665116.0,286047002.9,N
1657665135.8,286047003.3,N
1657665155.7,286047003.5,Y
1657665175.5,286047002.4,P
1657665195.3,286047003.7,P
1657665215.2,286047002.2,P
1657665235.0,286047002.0,Y
1657665235.9,286047002.0,P
1657665255.8,286046999.4,N
1657665275.6,286046999.1,N
1657665295.4,286047000.8,N
1657665315.3,286047000.2,N
1657665335.1,286047002.0,N
1657665355.9,286047004.3,Y
1657665375.7,286046999.7,P
1657665395.5,286047000.2,N
1657665415.4,286047000.8,N
1657665435.2,286046998.3,Y
1657665455.0,286046997.1,P
1657665455.9,286046997.1,N
1657665475.8,286046999.5,N
1657665495.6,286046997.7,N
1657665515.5,286046997.9,N
1657665535.3,286046995.7,Y
1657665555.1,286046997.4,P
1657665575.9,286046997.3,P
1657665595.7,286046995.0,P
1657665615.5,286046999.5,N
1657665635.4,286046998.1,N
1657665655.2,286046998.7,N
1657665675.1,286047002.3,N
1657665676.0,286047002.3,N
1657665695.8,286047000.4,N
1657665715.6,286047002.7,N
1657665735.5,286047003.0,N
1657665755.3,286047005.1,N
1657665775.1,286047003.4,N
1657665795.9,286047003.0,N
1657665815.7,286047006.0,N
1657665835.6,286047003.6,N
1657665855.4,286047003.7,N
1657665875.2,286047001.9,N
1657665895.1,286047000.1,N
1657665896.0,286047000.1,N
1657665915.8,286047000.2,N
1657665935.7,286047001.1,N
1657665955.5,286047000.7,N
1657665975.3,286046997.0,N
1657665995.2,286046995.6,N
1657666015.9,286046995.7,N
1657666035.7,286046993.4,N
1657666055.6,286046994.5,N
1657666075.4,286046992.2,N
1657666095.3,286046990.7,N
1657666115.1,286046991.6,N
1657666116.0,286046991.6,N
1657666135.8,286046989.5,N
1657666155.7,286046987.8,N
1657666175.5,286046987.6,N
1657666195.3,286046987.1,N
1657666215.2,286046987.6,N
1657666235.0,286046987.0,N
1657666235.9,286046987.0,N
1657666255.8,286046988.1,N
1657666275.6,286046988.4,N
1657666295.4,286046985.8,N
1657666315.3,286046986.2,N
1657666335.1,286046982.4,N
1657666355.9,286046980.9,N
1657666375.7,286046983.6,N
1657666395.5,286046982.2,N
1657666415.4,286046984.3,N
1657666435.2,286046982.4,N
1657666455.0,286046985.0,N
1657666455.9,286046985.0,N
1657666475.8,286046982.1,Y
1657666495.6,286046994.5,P
1657666515.5,286046992.0,N
1657666535.3,286046992.6,P
1657666555.1,286046992.4,Y
1657666575.9,286047000.3,P
1657666595.7,286047000.3,N
1657666615.6,286046998.2,N
1657666635.4,286046998.6,N
1657666655.2,286046999.5,N
1657666675.1,286046999.5,N
1657666676.0,286046999.5,N
1657666695.8,286046999.3,N
1657666715.7,286046999.1,N
1657666735.5,286046998.8,N
1657666755.3,286046998.9,N
1657666775.2,286046997.7,N
1657666795.9,286046994.9,N
